owner,sensor,date,latitude,longitude,vertical_datum,sea_water_temperature,qcFlag
Chevron,ioos:station:wmo:42876:1,2021-03-01T00:06:00Z,26.2980,-91.0932,24.6,22.0,11111222
Chevron,ioos:station:wmo:42876:1,2021-03-01T00:16:00Z,26.2980,-91.0932,24.6,22.2,11111222
Chevron,ioos:station:wmo:42876:1,2021-03-01T00:26:00Z,26.2980,-91.0932,24.9,22.1,11111222
Chevron,ioos:station:wmo:42876:1,2021-03-01T00:36:00Z,26.2980,-91.0932,24.9,22.1,11111222
Chevron,ioos:station:wmo:42876:1,2021-03-01T00:46:00Z,26.2980,-91.0932,24.7,22.2,11111222
Chevron,ioos:station:wmo:42876:1,2021-03-01T00:56:00Z,26.2980,-91.0932,24.7,22.2,11111222
Chevron,ioos:station:wmo:42876:1,2021-03-01T01:06:00Z,26.2980,-91.0932,25.0,22.2,11111222
Chevron,ioos:station:wmo:42876:1,2021-03-01T01:16:00Z,26.2980,-91.0932,24.9,22.2,11111222
Chevron,ioos:station:wmo:42876:1,2021-03-01T01:26:00Z,26.2980,-91.0932,24.6,22.3,11111222
Chevron,ioos:station:wmo:42876:1,2021-03-01T01:36:00Z,26.2980,-91.0932,24.5,22.3,11111222
Chevron,ioos:station:wmo:42876:1,2021-03-01T01:46:00Z,26.2980,-91.0932,24.6,22.2,11111222
Chevron,ioos:station:wmo:42876:1,2021-03-01T01:56:00Z,26.2980,-91.0932,24.8,22.2,11111222
Chevron,ioos:station:wmo:42876:1,2021-03-01T02:06:00Z,26.2980,-91.0932,24.9,22.3,11111222
Chevron,ioos:station:wmo:42876:1,2021-03-01T02:16:00Z,26.2980,-91.0932,25.0,22.2,11111222
Chevron,ioos:station:wmo:42876:1,2021-03-01T02:26:00Z,26.2980,-91.0932,24.7,22.3,11111222
Chevron,ioos:station:wmo:42876:1,2021-03-01T02:36:00Z,26.2980,-91.0932,25.1,22.4,11111222
Chevron,ioos:station:wmo:42876:1,2021-03-01T02:46:00Z,26.2980,-91.0932,25.0,22.4,11111222
Chevron,ioos:station:wmo:42876:1,2021-03-01T02:56:00Z,26.2980,-91.0932,24.8,22.4,11111222
Chevron,ioos:station:wmo:42876:1,2021-03-01T03:06:00Z,26.2980,-91.0932,24.6,22.4,11111222
Chevron,ioos:station:wmo:42876:1,2021-03-01T03:16:00Z,26.2980,-91.0932,25.0,22.4,11111222
Chevron,ioos:station:wmo:42876:1,2021-03-01T03:26:00Z,26.2980,-91.0932,25.2,22.4,11111222
Chevron,ioos:station:wmo:42876:1,2021-03-01T03:36:00Z,26.2980,-91.0932,24.9,22.4,11111222
Chevron,ioos:station:wmo:42876:1,2021-03-01T03:46:00Z,26.2980,-91.0932,24.9,22.4,11111222
Chevron,ioos:station:wmo:42876:1,2021-03-01T03:56:00Z,26.2980,-91.0932,24.9,22.4,11111222
Chevron,ioos:station:wmo:42876:1,2021-03-01T04:06:00Z,26.2980,-91.0932,24.8,22.4,11111222
Chevron,ioos:station:wmo:42876:1,2021-03-01T04:16:00Z,26.2980,-91.0932,25.0,22.4,11111222
Chevron,ioos:station:wmo:42876:1,2021-03-01T04:26:00Z,26.2980,-91.0932,25.2,22.4,11111222
Chevron,ioos:station:wmo:42876:1,2021-03-01T04:36:00Z,26.2980,-91.0932,24.9,22.4,11111222
Chevron,ioos:station:wmo:42876:1,2021-03-01T04:46:00Z,26.2980,-91.0932,24.8,22.4,11111222
Chevron,ioos:station:wmo:42876:1,2021-03-01T04:56:00Z,26.2980,-91.0932,25.0,22.4,11111222
Chevron,ioos:station:wmo:42876:1,2021-03-01T05:06:00Z,26.2980,-91.0932,24.8,22.4,11111222
Chevron,ioos:station:wmo:42876:1,2021-03-01T05:16:00Z,26.2980,-91.0932,24.9,22.4,11111222
Chevron,ioos:station:wmo:42876:1,2021-03-01T05:26:00Z,26.2980,-91.0932,25.0,22.4,11111222
Chevron,ioos:station:wmo:42876:1,2021-03-01T05:36:00Z,26.2980,-91.0932,25.1,22.4,11111222
Chevron,ioos:station:wmo:42876:1,2021-03-01T05:46:00Z,26.2980,-91.0932,25.0,22.4,11111222
Chevron,ioos:station:wmo:42876:1,2021-03-01T05:56:00Z,26.2980,-91.0932,25.0,22.4,11111222
Chevron,ioos:station:wmo:42876:1,2021-03-01T06:06:00Z,26.2980,-91.0932,25.3,22.4,11111222
Chevron,ioos:station:wmo:42876:1,2021-03-01T06:16:00Z,26.2980,-91.0932,25.0,22.4,11111222
Chevron,ioos:station:wmo:42876:1,2021-03-01T06:26:00Z,26.2980,-91.0932,25.1,22.4,11111222
Chevron,ioos:station:wmo:42876:1,2021-03-01T06:36:00Z,26.2980,-91.0932,24.9,22.4,11111222
Chevron,ioos:station:wmo:42876:1,2021-03-01T06:46:00Z,26.2980,-91.0932,25.2,22.3,11111222
Chevron,ioos:station:wmo:42876:1,2021-03-01T06:56:00Z,26.2980,-91.0932,25.0,22.3,11111222
Chevron,ioos:station:wmo:42876:1,2021-03-01T07:06:00Z,26.2980,-91.0932,24.8,22.4,11111222
Chevron,ioos:station:wmo:42876:1,2021-03-01T07:16:00Z,26.2980,-91.0932,25.3,22.4,11111222
Chevron,ioos:station:wmo:42876:1,2021-03-01T07:26:00Z,26.2980,-91.0932,25.1,22.3,11111222
Chevron,ioos:station:wmo:42876:1,2021-03-01T07:36:00Z,26.2980,-91.0932,25.3,22.3,11111222
Chevron,ioos:station:wmo:42876:1,2021-03-01T07:46:00Z,26.2980,-91.0932,25.0,22.4,11111222
Chevron,ioos:station:wmo:42876:1,2021-03-01T07:56:00Z,26.2980,-91.0932,25.2,22.4,11111222
Chevron,ioos:station:wmo:42876:1,2021-03-01T08:06:00Z,26.2980,-91.0932,25.0,22.4,11111222
Chevron,ioos:station:wmo:42876:1,2021-03-01T08:16:00Z,26.2980,-91.0932,25.2,22.4,11111222
Chevron,ioos:station:wmo:42876:1,2021-03-01T08:26:00Z,26.2980,-91.0932,25.0,22.4,11111222
Chevron,ioos:station:wmo:42876:1,2021-03-01T08:36:00Z,26.2980,-91.0932,24.5,22.4,11111222
Chevron,ioos:station:wmo:42876:1,2021-03-01T08:46:00Z,26.2980,-91.0932,24.8,22.4,11111222
Chevron,ioos:station:wmo:42876:1,2021-03-01T08:56:00Z,26.2980,-91.0932,25.1,22.4,11111222
Chevron,ioos:station:wmo:42876:1,2021-03-01T09:06:00Z,26.2980,-91.0932,24.7,22.3,11111222
Chevron,ioos:station:wmo:42876:1,2021-03-01T09:16:00Z,26.2980,-91.0932,24.9,22.3,11111222
Chevron,ioos:station:wmo:42876:1,2021-03-01T09:26:00Z,26.2980,-91.0932,25.0,22.4,11111222
Chevron,ioos:station:wmo:42876:1,2021-03-01T09:36:00Z,26.2980,-91.0932,25.1,22.4,11111222
Chevron,ioos:station:wmo:42876:1,2021-03-01T09:46:00Z,26.2980,-91.0932,25.2,22.4,11111222
Chevron,ioos:station:wmo:42876:1,2021-03-01T09:56:00Z,26.2980,-91.0932,24.9,22.3,11111222
Chevron,ioos:station:wmo:42876:1,2021-03-01T10:06:00Z,26.2980,-91.0932,24.5,22.3,11111222
Chevron,ioos:station:wmo:42876:1,2021-03-01T10:16:00Z,26.2980,-91.0932,24.6,22.3,11111222
Chevron,ioos:station:wmo:42876:1,2021-03-01T10:26:00Z,26.2980,-91.0932,24.7,22.3,11111222
Chevron,ioos:station:wmo:42876:1,2021-03-01T10:36:00Z,26.2980,-91.0932,24.8,22.3,11111222
Chevron,ioos:station:wmo:42876:1,2021-03-01T10:46:00Z,26.2980,-91.0932,24.6,22.3,11111222
Chevron,ioos:station:wmo:42876:1,2021-03-01T10:56:00Z,26.2980,-91.0932,24.9,22.3,11111222
Chevron,ioos:station:wmo:42876:1,2021-03-01T11:06:00Z,26.2980,-91.0932,24.9,22.3,11111222
Chevron,ioos:station:wmo:42876:1,2021-03-01T11:16:00Z,26.2980,-91.0932,24.9,22.3,11111222
Chevron,ioos:station:wmo:42876:1,2021-03-01T11:26:00Z,26.2980,-91.0932,25.0,22.3,11111222
Chevron,ioos:station:wmo:42876:1,2021-03-01T11:36:00Z,26.2980,-91.0932,24.7,22.3,11111222
Chevron,ioos:station:wmo:42876:1,2021-03-01T11:46:00Z,26.2980,-91.0932,25.1,22.3,11111222
Chevron,ioos:station:wmo:42876:1,2021-03-01T11:56:00Z,26.2980,-91.0932,24.9,22.3,11111222
Chevron,ioos:station:wmo:42876:1,2021-03-01T12:06:00Z,26.2980,-91.0932,24.4,22.3,11111222
Chevron,ioos:station:wmo:42876:1,2021-03-01T12:16:00Z,26.2980,-91.0932,24.8,22.2,11111222
Chevron,ioos:station:wmo:42876:1,2021-03-01T12:26:00Z,26.2980,-91.0932,24.8,22.2,11111222
Chevron,ioos:station:wmo:42876:1,2021-03-01T12:36:00Z,26.2980,-91.0932,24.8,22.2,11111222
Chevron,ioos:station:wmo:42876:1,2021-03-01T12:46:00Z,26.2980,-91.0932,25.1,22.1,11111222
Chevron,ioos:station:wmo:42876:1,2021-03-01T12:56:00Z,26.2980,-91.0932,24.4,22.0,11111222
Chevron,ioos:station:wmo:42876:1,2021-03-01T13:14:00Z,26.2980,-91.0932,24.8,22.0,11111222
Chevron,ioos:station:wmo:42876:1,2021-03-01T13:24:00Z,26.2980,-91.0932,24.6,22.1,11111222
Chevron,ioos:station:wmo:42876:1,2021-03-01T13:34:00Z,26.2980,-91.0932,24.9,22.0,11111222
Chevron,ioos:station:wmo:42876:1,2021-03-01T13:44:00Z,26.2980,-91.0932,24.8,22.0,11111222
Chevron,ioos:station:wmo:42876:1,2021-03-01T13:54:00Z,26.2980,-91.0932,24.8,21.9,11111222
Chevron,ioos:station:wmo:42876:1,2021-03-01T14:04:00Z,26.2980,-91.0932,24.9,22.0,11111222
Chevron,ioos:station:wmo:42876:1,2021-03-01T14:14:00Z,26.2980,-91.0932,24.8,22.0,11111222
Chevron,ioos:station:wmo:42876:1,2021-03-01T14:24:00Z,26.2980,-91.0932,24.7,22.0,11111222
Chevron,ioos:station:wmo:42876:1,2021-03-01T14:34:00Z,26.2980,-91.0932,24.9,22.0,11111222
Chevron,ioos:station:wmo:42876:1,2021-03-01T14:44:00Z,26.2980,-91.0932,24.9,22.0,11111222
Chevron,ioos:station:wmo:42876:1,2021-03-01T14:54:00Z,26.2980,-91.0932,24.5,21.9,11111222
Chevron,ioos:station:wmo:42876:1,2021-03-01T15:04:00Z,26.2980,-91.0932,24.8,21.9,11111222
Chevron,ioos:station:wmo:42876:1,2021-03-01T15:14:00Z,26.2980,-91.0932,24.9,21.8,11111222
Chevron,ioos:station:wmo:42876:1,2021-03-01T15:24:00Z,26.2980,-91.0932,24.8,21.8,11111222
Chevron,ioos:station:wmo:42876:1,2021-03-01T15:34:00Z,26.2980,-91.0932,24.7,21.9,11111222
Chevron,ioos:station:wmo:42876:1,2021-03-01T15:44:00Z,26.2980,-91.0932,25.1,21.9,11111222
Chevron,ioos:station:wmo:42876:1,2021-03-01T15:54:00Z,26.2980,-91.0932,25.1,22.0,11111222
Chevron,ioos:station:wmo:42876:1,2021-03-01T16:04:00Z,26.2980,-91.0932,24.7,21.9,11111222
Chevron,ioos:station:wmo:42876:1,2021-03-01T16:14:00Z,26.2980,-91.0932,24.1,21.9,11111222
Chevron,ioos:station:wmo:42876:1,2021-03-01T16:24:00Z,26.2980,-91.0932,24.3,21.9,11111222
Chevron,ioos:station:wmo:42876:1,2021-03-01T16:34:00Z,26.2980,-91.0932,24.7,22.0,11111222
Chevron,ioos:station:wmo:42876:1,2021-03-01T16:44:00Z,26.2980,-91.0932,24.8,22.0,11111222
Chevron,ioos:station:wmo:42876:1,2021-03-01T16:54:00Z,26.2980,-91.0932,24.8,21.9,11111222
Chevron,ioos:station:wmo:42876:1,2021-03-01T17:04:00Z,26.2980,-91.0932,25.2,21.9,11111222
Chevron,ioos:station:wmo:42876:1,2021-03-01T17:14:00Z,26.2980,-91.0932,25.0,22.0,11111222
Chevron,ioos:station:wmo:42876:1,2021-03-01T17:24:00Z,26.2980,-91.0932,25.2,21.9,11111222
Chevron,ioos:station:wmo:42876:1,2021-03-01T17:34:00Z,26.2980,-91.0932,24.8,21.9,11111222
Chevron,ioos:station:wmo:42876:1,2021-03-01T17:44:00Z,26.2980,-91.0932,24.7,21.9,11111222
Chevron,ioos:station:wmo:42876:1,2021-03-01T17:54:00Z,26.2980,-91.0932,24.8,22.1,11111222
Chevron,ioos:station:wmo:42876:1,2021-03-01T18:04:00Z,26.2980,-91.0932,24.5,22.2,11111222
Chevron,ioos:station:wmo:42876:1,2021-03-01T18:14:00Z,26.2980,-91.0932,24.4,22.1,11111222
Chevron,ioos:station:wmo:42876:1,2021-03-01T18:24:00Z,26.2980,-91.0932,24.8,22.1,11111222
Chevron,ioos:station:wmo:42876:1,2021-03-01T18:34:00Z,26.2980,-91.0932,24.5,22.1,11111222
Chevron,ioos:station:wmo:42876:1,2021-03-01T18:44:00Z,26.2980,-91.0932,24.8,22.1,11111222
Chevron,ioos:station:wmo:42876:1,2021-03-01T18:54:00Z,26.2980,-91.0932,24.6,22.1,11111222
Chevron,ioos:station:wmo:42876:1,2021-03-01T19:04:00Z,26.2980,-91.0932,24.8,22.2,11111222
Chevron,ioos:station:wmo:42876:1,2021-03-01T19:14:00Z,26.2980,-91.0932,24.5,22.2,11111222
Chevron,ioos:station:wmo:42876:1,2021-03-01T19:24:00Z,26.2980,-91.0932,24.4,22.2,11111222
Chevron,ioos:station:wmo:42876:1,2021-03-01T19:34:00Z,26.2980,-91.0932,24.5,22.1,11111222
Chevron,ioos:station:wmo:42876:1,2021-03-01T19:44:00Z,26.2980,-91.0932,24.7,22.1,11111222
Chevron,ioos:station:wmo:42876:1,2021-03-01T19:54:00Z,26.2980,-91.0932,25.0,21.9,11111222
Chevron,ioos:station:wmo:42876:1,2021-03-01T20:04:00Z,26.2980,-91.0932,24.5,21.9,11111222
Chevron,ioos:station:wmo:42876:1,2021-03-01T20:14:00Z,26.2980,-91.0932,24.8,21.9,11111222
Chevron,ioos:station:wmo:42876:1,2021-03-01T20:24:00Z,26.2980,-91.0932,24.9,21.9,11111222
Chevron,ioos:station:wmo:42876:1,2021-03-01T20:34:00Z,26.2980,-91.0932,24.7,22.0,11111222
Chevron,ioos:station:wmo:42876:1,2021-03-01T20:44:00Z,26.2980,-91.0932,25.1,21.9,11111222
Chevron,ioos:station:wmo:42876:1,2021-03-01T20:54:00Z,26.2980,-91.0932,24.5,22.1,11111222
Chevron,ioos:station:wmo:42876:1,2021-03-01T21:04:00Z,26.2980,-91.0932,24.4,22.2,11111222
Chevron,ioos:station:wmo:42876:1,2021-03-01T21:14:00Z,26.2980,-91.0932,24.7,22.2,11111222
Chevron,ioos:station:wmo:42876:1,2021-03-01T21:24:00Z,26.2980,-91.0932,24.7,22.2,11111222
Chevron,ioos:station:wmo:42876:1,2021-03-01T21:34:00Z,26.2980,-91.0932,24.9,22.1,11111222
Chevron,ioos:station:wmo:42876:1,2021-03-01T21:44:00Z,26.2980,-91.0932,24.2,22.1,11111222
Chevron,ioos:station:wmo:42876:1,2021-03-01T21:54:00Z,26.2980,-91.0932,24.4,22.2,11111222
Chevron,ioos:station:wmo:42876:1,2021-03-01T22:04:00Z,26.2980,-91.0932,24.7,22.2,11111222
Chevron,ioos:station:wmo:42876:1,2021-03-01T22:14:00Z,26.2980,-91.0932,24.8,22.3,11111222
Chevron,ioos:station:wmo:42876:1,2021-03-01T22:24:00Z,26.2980,-91.0932,24.7,22.4,11111222
Chevron,ioos:station:wmo:42876:1,2021-03-01T22:34:00Z,26.2980,-91.0932,24.6,22.4,11111222
Chevron,ioos:station:wmo:42876:1,2021-03-01T22:44:00Z,26.2980,-91.0932,24.7,22.3,11111222
Chevron,ioos:station:wmo:42876:1,2021-03-01T22:54:00Z,26.2980,-91.0932,24.6,22.3,11111222
Chevron,ioos:station:wmo:42876:1,2021-03-01T23:04:00Z,26.2980,-91.0932,24.5,22.4,11111222
Chevron,ioos:station:wmo:42876:1,2021-03-01T23:14:00Z,26.2980,-91.0932,24.9,22.4,11111222
Chevron,ioos:station:wmo:42876:1,2021-03-01T23:24:00Z,26.2980,-91.0932,24.6,22.4,11111222
Chevron,ioos:station:wmo:42876:1,2021-03-01T23:34:00Z,26.2980,-91.0932,24.6,22.3,11111222
Chevron,ioos:station:wmo:42876:1,2021-03-01T23:44:00Z,26.2980,-91.0932,24.5,22.3,11111222
Chevron,ioos:station:wmo:42876:1,2021-03-01T23:54:00Z,26.2980,-91.0932,24.7,22.4,11111222
Chevron,ioos:station:wmo:42876:1,2021-03-02T00:04:00Z,26.2980,-91.0932,24.8,22.4,11111222
Chevron,ioos:station:wmo:42876:1,2021-03-02T00:14:00Z,26.2980,-91.0932,24.9,22.4,11111222
Chevron,ioos:station:wmo:42876:1,2021-03-02T00:24:00Z,26.2980,-91.0932,24.6,22.4,11111222
Chevron,ioos:station:wmo:42876:1,2021-03-02T00:34:00Z,26.2980,-91.0932,24.7,22.4,11111222
Chevron,ioos:station:wmo:42876:1,2021-03-02T00:44:00Z,26.2980,-91.0932,24.8,22.4,11111222
Chevron,ioos:station:wmo:42876:1,2021-03-02T00:54:00Z,26.2980,-91.0932,24.6,22.4,11111222
Chevron,ioos:station:wmo:42876:1,2021-03-02T01:04:00Z,26.2980,-91.0932,24.2,22.4,11111222
Chevron,ioos:station:wmo:42876:1,2021-03-02T01:14:00Z,26.2980,-91.0932,24.7,22.4,11111222
Chevron,ioos:station:wmo:42876:1,2021-03-02T01:24:00Z,26.2980,-91.0932,24.5,22.4,11111222
Chevron,ioos:station:wmo:42876:1,2021-03-02T01:34:00Z,26.2980,-91.0932,25.0,22.4,11111222
Chevron,ioos:station:wmo:42876:1,2021-03-02T01:44:00Z,26.2980,-91.0932,24.8,22.4,11111222
Chevron,ioos:station:wmo:42876:1,2021-03-02T01:54:00Z,26.2980,-91.0932,24.7,22.4,11111222
Chevron,ioos:station:wmo:42876:1,2021-03-02T02:04:00Z,26.2980,-91.0932,24.5,22.4,11111222
Chevron,ioos:station:wmo:42876:1,2021-03-02T02:14:00Z,26.2980,-91.0932,25.0,22.4,11111222
Chevron,ioos:station:wmo:42876:1,2021-03-02T02:24:00Z,26.2980,-91.0932,24.4,22.4,11111222
Chevron,ioos:station:wmo:42876:1,2021-03-02T02:34:00Z,26.2980,-91.0932,24.2,22.4,11111222
Chevron,ioos:station:wmo:42876:1,2021-03-02T02:44:00Z,26.2980,-91.0932,24.6,22.4,11111222
Chevron,ioos:station:wmo:42876:1,2021-03-02T02:54:00Z,26.2980,-91.0932,24.6,22.4,11111222
Chevron,ioos:station:wmo:42876:1,2021-03-02T03:04:00Z,26.2980,-91.0932,24.7,22.3,11111222
Chevron,ioos:station:wmo:42876:1,2021-03-02T03:14:00Z,26.2980,-91.0932,24.7,22.4,11111222
Chevron,ioos:station:wmo:42876:1,2021-03-02T03:24:00Z,26.2980,-91.0932,24.8,22.4,11111222
Chevron,ioos:station:wmo:42876:1,2021-03-02T03:34:00Z,26.2980,-91.0932,24.7,22.4,11111222
Chevron,ioos:station:wmo:42876:1,2021-03-02T03:44:00Z,26.2980,-91.0932,24.5,22.4,11111222
Chevron,ioos:station:wmo:42876:1,2021-03-02T03:54:00Z,26.2980,-91.0932,24.7,22.4,11111222
Chevron,ioos:station:wmo:42876:1,2021-03-02T04:04:00Z,26.2980,-91.0932,25.0,22.4,11111222
Chevron,ioos:station:wmo:42876:1,2021-03-02T04:14:00Z,26.2980,-91.0932,25.0,22.4,11111222
Chevron,ioos:station:wmo:42876:1,2021-03-02T04:24:00Z,26.2980,-91.0932,25.1,22.4,11111222
Chevron,ioos:station:wmo:42876:1,2021-03-02T04:34:00Z,26.2980,-91.0932,24.7,22.5,11111222
Chevron,ioos:station:wmo:42876:1,2021-03-02T04:44:00Z,26.2980,-91.0932,25.1,22.5,11111222
Chevron,ioos:station:wmo:42876:1,2021-03-02T04:54:00Z,26.2980,-91.0932,25.0,22.6,11111222
Chevron,ioos:station:wmo:42876:1,2021-03-02T05:04:00Z,26.2980,-91.0932,24.8,22.6,11111222
Chevron,ioos:station:wmo:42876:1,2021-03-02T05:14:00Z,26.2980,-91.0932,24.6,22.5,11111222
Chevron,ioos:station:wmo:42876:1,2021-03-02T05:24:00Z,26.2980,-91.0932,24.8,22.5,11111222
Chevron,ioos:station:wmo:42876:1,2021-03-02T05:34:00Z,26.2980,-91.0932,24.8,22.5,11111222
Chevron,ioos:station:wmo:42876:1,2021-03-02T05:44:00Z,26.2980,-91.0932,25.1,22.5,11111222
Chevron,ioos:station:wmo:42876:1,2021-03-02T05:54:00Z,26.2980,-91.0932,24.8,22.5,11111222
Chevron,ioos:station:wmo:42876:1,2021-03-02T06:04:00Z,26.2980,-91.0932,24.9,22.5,11111222
Chevron,ioos:station:wmo:42876:1,2021-03-02T06:14:00Z,26.2980,-91.0932,25.0,22.5,11111222
Chevron,ioos:station:wmo:42876:1,2021-03-02T06:24:00Z,26.2980,-91.0932,25.1,22.5,11111222
Chevron,ioos:station:wmo:42876:1,2021-03-02T06:34:00Z,26.2980,-91.0932,24.8,22.5,11111222
Chevron,ioos:station:wmo:42876:1,2021-03-02T06:44:00Z,26.2980,-91.0932,25.2,22.6,11111222
Chevron,ioos:station:wmo:42876:1,2021-03-02T06:54:00Z,26.2980,-91.0932,24.7,22.6,11111222
Chevron,ioos:station:wmo:42876:1,2021-03-02T07:04:00Z,26.2980,-91.0932,25.1,22.6,11111222
Chevron,ioos:station:wmo:42876:1,2021-03-02T07:14:00Z,26.2980,-91.0932,25.0,22.6,11111222
Chevron,ioos:station:wmo:42876:1,2021-03-02T07:24:00Z,26.2980,-91.0932,24.8,22.6,11111222
Chevron,ioos:station:wmo:42876:1,2021-03-02T07:34:00Z,26.2980,-91.0932,24.6,22.5,11111222
Chevron,ioos:station:wmo:42876:1,2021-03-02T07:44:00Z,26.2980,-91.0932,24.8,22.5,11111222
Chevron,ioos:station:wmo:42876:1,2021-03-02T07:54:00Z,26.2980,-91.0932,24.7,22.6,11111222
Chevron,ioos:station:wmo:42876:1,2021-03-02T08:04:00Z,26.2980,-91.0932,24.6,22.6,11111222
Chevron,ioos:station:wmo:42876:1,2021-03-02T08:14:00Z,26.2980,-91.0932,24.6,22.6,11111222
Chevron,ioos:station:wmo:42876:1,2021-03-02T08:24:00Z,26.2980,-91.0932,25.0,22.6,11111222
Chevron,ioos:station:wmo:42876:1,2021-03-02T08:34:00Z,26.2980,-91.0932,24.9,22.6,11111222
Chevron,ioos:station:wmo:42876:1,2021-03-02T08:44:00Z,26.2980,-91.0932,25.0,22.6,11111222
Chevron,ioos:station:wmo:42876:1,2021-03-02T08:54:00Z,26.2980,-91.0932,24.9,22.6,11111222
Chevron,ioos:station:wmo:42876:1,2021-03-02T09:04:00Z,26.2980,-91.0932,24.6,22.6,11111222
Chevron,ioos:station:wmo:42876:1,2021-03-02T09:14:00Z,26.2980,-91.0932,24.9,22.5,11111222
Chevron,ioos:station:wmo:42876:1,2021-03-02T09:24:00Z,26.2980,-91.0932,24.9,22.5,11111222
Chevron,ioos:station:wmo:42876:1,2021-03-02T09:34:00Z,26.2980,-91.0932,25.0,22.4,11111222
Chevron,ioos:station:wmo:42876:1,2021-03-02T09:44:00Z,26.2980,-91.0932,25.0,22.4,11111222
Chevron,ioos:station:wmo:42876:1,2021-03-02T09:54:00Z,26.2980,-91.0932,25.4,22.5,11111222
Chevron,ioos:station:wmo:42876:1,2021-03-02T10:04:00Z,26.2980,-91.0932,25.3,22.5,11111222
Chevron,ioos:station:wmo:42876:1,2021-03-02T10:14:00Z,26.2980,-91.0932,25.3,22.4,11111222
Chevron,ioos:station:wmo:42876:1,2021-03-02T10:24:00Z,26.2980,-91.0932,24.8,22.4,11111222
Chevron,ioos:station:wmo:42876:1,2021-03-02T10:34:00Z,26.2980,-91.0932,24.7,22.4,11111222
Chevron,ioos:station:wmo:42876:1,2021-03-02T10:44:00Z,26.2980,-91.0932,24.7,22.4,11111222
Chevron,ioos:station:wmo:42876:1,2021-03-02T10:54:00Z,26.2980,-91.0932,24.8,22.4,11111222
Chevron,ioos:station:wmo:42876:1,2021-03-02T11:04:00Z,26.2980,-91.0932,25.2,22.3,11111222
Chevron,ioos:station:wmo:42876:1,2021-03-02T11:14:00Z,26.2980,-91.0932,24.8,22.3,11111222
Chevron,ioos:station:wmo:42876:1,2021-03-02T11:24:00Z,26.2980,-91.0932,24.9,22.4,11111222
Chevron,ioos:station:wmo:42876:1,2021-03-02T11:34:00Z,26.2980,-91.0932,25.3,22.4,11111222
Chevron,ioos:station:wmo:42876:1,2021-03-02T11:44:00Z,26.2980,-91.0932,25.4,22.4,11111222
Chevron,ioos:station:wmo:42876:1,2021-03-02T11:54:00Z,26.2980,-91.0932,25.3,22.4,11111222
Chevron,ioos:station:wmo:42876:1,2021-03-02T12:04:00Z,26.2980,-91.0932,25.4,22.4,11111222
Chevron,ioos:station:wmo:42876:1,2021-03-02T12:14:00Z,26.2980,-91.0932,25.1,22.3,11111222
Chevron,ioos:station:wmo:42876:1,2021-03-02T12:24:00Z,26.2980,-91.0932,25.0,22.4,11111222
Chevron,ioos:station:wmo:42876:1,2021-03-02T12:34:00Z,26.2980,-91.0932,25.2,22.4,11111222
Chevron,ioos:station:wmo:42876:1,2021-03-02T12:44:00Z,26.2980,-91.0932,25.2,22.4,11111222
Chevron,ioos:station:wmo:42876:1,2021-03-02T12:54:00Z,26.2980,-91.0932,25.2,22.4,11111222
Chevron,ioos:station:wmo:42876:1,2021-03-02T13:04:00Z,26.2980,-91.0932,25.2,22.4,11111222
Chevron,ioos:station:wmo:42876:1,2021-03-02T13:14:00Z,26.2980,-91.0932,25.2,22.4,11111222
Chevron,ioos:station:wmo:42876:1,2021-03-02T13:24:00Z,26.2980,-91.0932,25.1,22.4,11111222
Chevron,ioos:station:wmo:42876:1,2021-03-02T13:34:00Z,26.2980,-91.0932,25.5,22.4,11111222
Chevron,ioos:station:wmo:42876:1,2021-03-02T13:44:00Z,26.2980,-91.0932,25.2,22.4,11111222
Chevron,ioos:station:wmo:42876:1,2021-03-02T13:54:00Z,26.2980,-91.0932,25.3,22.4,11111222
Chevron,ioos:station:wmo:42876:1,2021-03-02T14:04:00Z,26.2980,-91.0932,25.0,22.4,11111222
Chevron,ioos:station:wmo:42876:1,2021-03-02T14:14:00Z,26.2980,-91.0932,25.1,22.3,11111222
Chevron,ioos:station:wmo:42876:1,2021-03-02T14:24:00Z,26.2980,-91.0932,25.5,22.3,11111222
Chevron,ioos:station:wmo:42876:1,2021-03-02T14:34:00Z,26.2980,-91.0932,24.9,22.3,11111222
Chevron,ioos:station:wmo:42876:1,2021-03-02T14:44:00Z,26.2980,-91.0932,25.1,22.3,11111222
Chevron,ioos:station:wmo:42876:1,2021-03-02T14:54:00Z,26.2980,-91.0932,25.1,22.3,11111222
Chevron,ioos:station:wmo:42876:1,2021-03-02T15:04:00Z,26.2980,-91.0932,24.8,22.3,11111222
Chevron,ioos:station:wmo:42876:1,2021-03-02T15:14:00Z,26.2980,-91.0932,24.9,22.2,11111222
Chevron,ioos:station:wmo:42876:1,2021-03-02T15:24:00Z,26.2980,-91.0932,25.0,22.1,11111222
Chevron,ioos:station:wmo:42876:1,2021-03-02T15:34:00Z,26.2980,-91.0932,24.8,22.2,11111222
Chevron,ioos:station:wmo:42876:1,2021-03-02T15:44:00Z,26.2981,-91.0931,24.8,22.2,11111222
Chevron,ioos:station:wmo:42876:1,2021-03-02T15:54:00Z,26.2981,-91.0931,24.8,22.1,11111222
Chevron,ioos:station:wmo:42876:1,2021-03-02T16:04:00Z,26.2981,-91.0931,25.3,22.1,11111222
Chevron,ioos:station:wmo:42876:1,2021-03-02T16:14:00Z,26.2981,-91.0931,25.0,22.1,11111222
Chevron,ioos:station:wmo:42876:1,2021-03-02T16:24:00Z,26.2981,-91.0931,25.0,22.1,11111222
Chevron,ioos:station:wmo:42876:1,2021-03-02T16:34:00Z,26.2981,-91.0931,25.2,22.2,11111222
Chevron,ioos:station:wmo:42876:1,2021-03-02T16:44:00Z,26.2981,-91.0931,25.1,22.3,11111222
Chevron,ioos:station:wmo:42876:1,2021-03-02T16:54:00Z,26.2981,-91.0931,25.2,22.4,11111222
Chevron,ioos:station:wmo:42876:1,2021-03-02T17:04:00Z,26.2981,-91.0931,25.2,22.5,11111222
Chevron,ioos:station:wmo:42876:1,2021-03-02T17:14:00Z,26.2981,-91.0931,25.2,22.5,11111222
Chevron,ioos:station:wmo:42876:1,2021-03-02T17:24:00Z,26.2981,-91.0931,25.1,22.4,11111222
Chevron,ioos:station:wmo:42876:1,2021-03-02T17:34:00Z,26.2981,-91.0931,25.2,22.4,11111222
Chevron,ioos:station:wmo:42876:1,2021-03-02T17:44:00Z,26.2981,-91.0931,24.9,22.4,11111222
Chevron,ioos:station:wmo:42876:1,2021-03-02T17:54:00Z,26.2981,-91.0931,25.1,22.4,11111222
Chevron,ioos:station:wmo:42876:1,2021-03-02T18:04:00Z,26.2981,-91.0931,25.3,22.4,11111222
Chevron,ioos:station:wmo:42876:1,2021-03-02T18:14:00Z,26.2981,-91.0931,25.2,22.4,11111222
Chevron,ioos:station:wmo:42876:1,2021-03-02T18:24:00Z,26.2981,-91.0931,25.0,22.5,11111222
Chevron,ioos:station:wmo:42876:1,2021-03-02T18:34:00Z,26.2981,-91.0931,25.1,22.4,11111222
Chevron,ioos:station:wmo:42876:1,2021-03-02T18:44:00Z,26.2981,-91.0931,25.1,22.5,11111222
Chevron,ioos:station:wmo:42876:1,2021-03-02T18:54:00Z,26.2981,-91.0931,25.5,22.4,11111222
Chevron,ioos:station:wmo:42876:1,2021-03-02T19:04:00Z,26.2981,-91.0931,25.2,22.5,11111222
Chevron,ioos:station:wmo:42876:1,2021-03-02T19:14:00Z,26.2981,-91.0931,25.1,22.6,11111222
Chevron,ioos:station:wmo:42876:1,2021-03-02T19:24:00Z,26.2981,-91.0931,25.1,22.6,11111222
Chevron,ioos:station:wmo:42876:1,2021-03-02T19:34:00Z,26.2981,-91.0931,25.0,22.7,11111222
Chevron,ioos:station:wmo:42876:1,2021-03-02T19:44:00Z,26.2981,-91.0931,24.9,22.7,11111222